Tracking 20942 objects as of 13-Jul-2020
HD Live streaming from Space Station
objects crossing your sky now

DUCHIFAT-3

Track DUCHIFAT-3 now!
10-day predictions
DUCHIFAT-3 is classified as:


NORAD ID: 44854
Int'l Code: 2019-089C
Perigee: 570.3 km
Apogee: 583.5 km
Inclination: 37.0 °
Period: 96.1 minutes
Semi major axis: 6947 km
RCS: Unknown
Launch date: December 11, 2019
Source: (TBD)
Launch site: SRIHARIKOTA (SRI)

Uplink (MHz): 145.970
Downlink (MHz): 436.400
Beacon (MHz):
Mode: FM/APRS/9k6BPSK
Call sign: 4H4HSL-1
Status: Active

aabbcc
Your satellite tracking list
Your tracking list is empty




NASA's NSSDC Master Catalog

Two Line Element Set (TLE):
1 44854U 19089C   20195.40487360  .00000177  00000-0  20747-4 0  9990
2 44854  36.9691 304.9851 0009485 279.5465  80.4213 14.99082536 32195
Source of the keplerian elements: AFSPC